| time (UTC) | temp F | wind direction | speed knots | gust knots | rain 1hr in | rain 24hr in | rain mn in | humidity % | barometer mb |
| 20260505035040 | 59 | 50 | 1.7 | 2.6 | 0.00 | 0.00 | 0.00 | 68 | 1015.3 |
| 20260505034536 | 59 | 56 | 0.9 | 1.7 | 0.00 | 0.00 | 0.00 | 68 | 1015.2 |
| 20260505034033 | 59 | 44 | 1.7 | 1.7 | 0.00 | 0.00 | 0.00 | 66 | 1015.3 |
| 20260505033530 | 59 | 71 | 0.0 | 1.7 | 0.00 | 0.00 | 0.00 | 65 | 1015.4 |
| 20260505033028 | 59 | 56 | 0.9 | 1.7 | 0.00 | 0.00 | 0.00 | 65 | 1015.4 |
| 20260505032526 | 59 | 69 | 0.9 | 1.7 | 0.00 | 0.00 | 0.00 | 64 | 1015.4 |
| 20260505032022 | 59 | 48 | 1.7 | 1.7 | 0.00 | 0.00 | 0.00 | 63 | 1015.5 |
| 20260505031520 | 59 | 63 | 0.9 | 1.7 | 0.00 | 0.00 | 0.00 | 62 | 1015.4 |
| 20260505031016 | 59 | 35 | 1.7 | 1.7 | 0.00 | 0.00 | 0.00 | 61 | 1015.3 |
| 20260505030513 | 60 | 50 | 0.9 | 1.7 | 0.00 | 0.00 | 0.00 | 60 | 1015.1 |
| 20260505030009 | 60 | 55 | 0.0 | 1.7 | 0.00 | 0.00 | 0.00 | 59 | 1015.4 |
| 20260505025505 | 60 | 55 | 0.0 | 1.7 | 0.00 | 0.00 | 0.00 | 59 | 1015.2 |
| 20260505025004 | 60 | 49 | 1.7 | 1.7 | 0.00 | 0.00 | 0.00 | 60 | 1015.3 |
| 20260505024500 | 60 | 31 | 1.7 | 2.6 | 0.00 | 0.00 | 0.00 | 59 | 1015.4 |
| 20260505023957 | 60 | 69 | 0.0 | 1.7 | 0.00 | 0.00 | 0.00 | 58 | 1015.3 |
| 20260505023454 | 61 | 53 | 0.9 | 0.9 | 0.00 | 0.00 | 0.00 | 58 | 1015.3 |
| 20260505022952 | 61 | 45 | 0.9 | 1.7 | 0.00 | 0.00 | 0.00 | 58 | 1015.3 |
| 20260505022449 | 61 | 52 | 0.0 | 1.7 | 0.00 | 0.00 | 0.00 | 58 | 1015.1 |
| 20260505021946 | 62 | 61 | 1.7 | 1.7 | 0.00 | 0.00 | 0.00 | 56 | 1015.0 |
| 20260505021443 | 62 | 89 | 0.0 | 0.9 | 0.00 | 0.00 | 0.00 | 56 | 1014.8 |
| 20260505020938 | 62 | 70 | 0.9 | 0.9 | 0.00 | 0.00 | 0.00 | 55 | 1015.0 |
| 20260505020434 | 62 | 44 | 0.0 | 1.7 | 0.00 | 0.00 | 0.00 | 55 | 1014.9 |
| 20260505015931 | 62 | 49 | 0.0 | 1.7 | 0.00 | 0.00 | 0.00 | 55 | 1015.0 |
| 20260505015428 | 62 | 55 | 0.9 | 1.7 | 0.00 | 0.00 | 0.00 | 56 | 1014.9 |
| 20260505014926 | 61 | 67 | 0.9 | 1.7 | 0.00 | 0.00 | 0.00 | 56 | 1014.9 |
| 20260505014422 | 62 | 61 | 0.9 | 2.6 | 0.00 | 0.00 | 0.00 | 54 | 1014.8 |
| 20260505013919 | 62 | 61 | 0.9 | 1.7 | 0.00 | 0.00 | 0.00 | 55 | 1014.8 |
| 20260505013416 | 62 | 58 | 0.9 | 1.7 | 0.00 | 0.00 | 0.00 | 55 | 1014.6 |
| 20260505012914 | 62 | 92 | 0.9 | 1.7 | 0.00 | 0.00 | 0.00 | 54 | 1014.5 |
| 20260505012412 | 62 | 76 | 0.9 | 1.7 | 0.00 | 0.00 | 0.00 | 54 | 1014.2 |
| 20260505011908 | 63 | 70 | 1.7 | 1.7 | 0.00 | 0.00 | 0.00 | 53 | 1014.4 |
| 20260505011405 | 63 | 81 | 0.9 | 1.7 | 0.00 | 0.00 | 0.00 | 51 | 1014.2 |
| 20260505010901 | 63 | 76 | 0.9 | 1.7 | 0.00 | 0.00 | 0.00 | 51 | 1014.3 |
| 20260505010357 | 64 | 86 | 0.9 | 1.7 | 0.00 | 0.00 | 0.00 | 51 | 1014.2 |
| 20260505005853 | 64 | 62 | 0.9 | 1.7 | 0.00 | 0.00 | 0.00 | 50 | 1014.0 |
| 20260505005350 | 64 | 88 | 0.9 | 1.7 | 0.00 | 0.00 | 0.00 | 48 | 1014.1 |
| 20260505004848 | 64 | 54 | 1.7 | 1.7 | 0.00 | 0.00 | 0.00 | 49 | 1013.9 |
| 20260505004344 | 64 | 89 | 0.0 | 1.7 | 0.00 | 0.00 | 0.00 | 48 | 1014.0 |
| 20260505003841 | 64 | 82 | 0.9 | 1.7 | 0.00 | 0.00 | 0.00 | 48 | 1014.0 |
| 20260505003338 | 64 | 81 | 1.7 | 2.6 | 0.00 | 0.00 | 0.00 | 48 | 1013.8 |
| 20260505002834 | 65 | 80 | 1.7 | 2.6 | 0.00 | 0.00 | 0.00 | 48 | 1013.8 |
| 20260505002331 | 66 | 78 | 1.7 | 2.6 | 0.00 | 0.00 | 0.00 | 49 | 1013.8 |
| 20260505001830 | 66 | 82 | 1.7 | 2.6 | 0.00 | 0.00 | 0.00 | 45 | 1013.7 |
| 20260505001326 | 67 | 83 | 1.7 | 2.6 | 0.00 | 0.00 | 0.00 | 45 | 1013.5 |
| 20260505000824 | 67 | 82 | 1.7 | 1.7 | 0.00 | 0.00 | 0.00 | 43 | 1013.7 |
| 20260505000321 | 68 | 82 | 1.7 | 1.7 | 0.00 | 0.00 | 0.00 | 42 | 1013.4 |
| 20260504235818 | 68 | 80 | 1.7 | 2.6 | 0.00 | 0.00 | 0.00 | 42 | 1013.5 |
| 20260504235315 | 68 | 88 | 1.7 | 1.7 | 0.00 | 0.00 | 0.00 | 42 | 1013.4 |
| 20260504234811 | 69 | 63 | 1.7 | 1.7 | 0.00 | 0.00 | 0.00 | 40 | 1013.4 |
| 20260504234309 | 70 | 69 | 0.9 | 1.7 | 0.00 | 0.00 | 0.00 | 40 | 1013.2 |
| 20260504233805 | 70 | 82 | 0.9 | 1.7 | 0.00 | 0.00 | 0.00 | 39 | 1013.3 |
| 20260504233301 | 71 | 66 | 1.7 | 1.7 | 0.00 | 0.00 | 0.00 | 39 | 1013.2 |
| 20260504232758 | 71 | 72 | 0.0 | 1.7 | 0.00 | 0.00 | 0.00 | 39 | 1013.3 |
| 20260504232255 | 72 | 44 | 0.9 | 1.7 | 0.00 | 0.00 | 0.00 | 38 | 1013.2 |
| 20260504231752 | 72 | 67 | 0.9 | 1.7 | 0.00 | 0.00 | 0.00 | 37 | 1013.2 |
| 20260504231248 | 73 | 75 | 1.7 | 1.7 | 0.00 | 0.00 | 0.00 | 37 | 1013.2 |
| 20260504230744 | 74 | 62 | 1.7 | 1.7 | 0.00 | 0.00 | 0.00 | 36 | 1013.2 |
| 20260504230243 | 74 | 62 | 0.9 | 1.7 | 0.00 | 0.00 | 0.00 | 36 | 1013.0 |
| 20260504225741 | 75 | 86 | 0.9 | 0.9 | 0.00 | 0.00 | 0.00 | 36 | 1013.1 |
| 20260504225237 | 76 | 103 | 0.9 | 1.7 | 0.00 | 0.00 | 0.00 | 34 | 1013.0 |
| 20260504224734 | 77 | 67 | 1.7 | 1.7 | 0.00 | 0.00 | 0.00 | 33 | 1013.0 |
| 20260504224232 | 79 | 96 | 0.0 | 1.7 | 0.00 | 0.00 | 0.00 | 33 | 1013.1 |
| 20260504223728 | 80 | 20 | 1.7 | 2.6 | 0.00 | 0.00 | 0.00 | 31 | 1013.0 |
| 20260504223223 | 83 | 322 | 0.0 | 2.6 | 0.00 | 0.00 | 0.00 | 32 | 1013.2 |
| 20260504222721 | 83 | 309 | 1.7 | 2.6 | 0.00 | 0.00 | 0.00 | 28 | 1013.3 |
| 20260504222218 | 83 | 248 | 0.0 | 1.7 | 0.00 | 0.00 | 0.00 | 31 | 1013.1 |
| 20260504221715 | 82 | 66 | 1.7 | 1.7 | 0.00 | 0.00 | 0.00 | 32 | 1013.2 |
| 20260504221212 | 83 | 281 | 1.7 | 2.6 | 0.00 | 0.00 | 0.00 | 29 | 1013.1 |
| 20260504220708 | 84 | 289 | 1.7 | 2.6 | 0.00 | 0.00 | 0.00 | 28 | 1013.3 |
| 20260504220206 | 85 | 135 | 0.0 | 2.6 | 0.00 | 0.00 | 0.00 | 28 | 1013.1 |
| 20260504215702 | 85 | 112 | 0.9 | 1.7 | 0.00 | 0.00 | 0.00 | 31 | 1013.5 |
| 20260504215200 | 84 | 60 | 0.0 | 1.7 | 0.00 | 0.00 | 0.00 | 33 | 1013.1 |
| 20260504214655 | 84 | 55 | 0.0 | 1.7 | 0.00 | 0.00 | 0.00 | 30 | 1013.4 |
| 20260504214152 | 83 | 72 | 0.0 | 1.7 | 0.00 | 0.00 | 0.00 | 32 | 1013.2 |
| 20260504213648 | 83 | 309 | 0.0 | 1.7 | 0.00 | 0.00 | 0.00 | 32 | 1013.1 |
| 20260504213145 | 84 | 315 | 0.0 | 1.7 | 0.00 | 0.00 | 0.00 | 33 | 1013.3 |
| 20260504212642 | 84 | 29 | 1.7 | 1.7 | 0.00 | 0.00 | 0.00 | 33 | 1013.4 |
| 20260504212138 | 83 | 248 | 1.7 | 1.7 | 0.00 | 0.00 | 0.00 | 31 | 1013.3 |
| 20260504211636 | 83 | 122 | 0.0 | 2.6 | 0.00 | 0.00 | 0.00 | 32 | 1013.5 |
| 20260504211132 | 83 | 229 | 0.0 | 1.7 | 0.00 | 0.00 | 0.00 | 31 | 1013.2 |
| 20260504210630 | 82 | 186 | 0.0 | 1.7 | 0.00 | 0.00 | 0.00 | 33 | 1013.6 |
| 20260504210126 | 82 | 243 | 0.9 | 2.6 | 0.00 | 0.00 | 0.00 | 32 | 1013.4 |
| 20260504205624 | 82 | 53 | 0.0 | 2.6 | 0.00 | 0.00 | 0.00 | 33 | 1013.3 |
| 20260504205121 | 82 | 176 | 0.0 | 1.7 | 0.00 | 0.00 | 0.00 | 32 | 1013.4 |
| 20260504204620 | 83 | 308 | 0.9 | 2.6 | 0.00 | 0.00 | 0.00 | 33 | 1013.3 |
| 20260504204118 | 83 | 81 | 0.0 | 3.5 | 0.00 | 0.00 | 0.00 | 31 | 1013.6 |
| 20260504203616 | 84 | 190 | 2.6 | 2.6 | 0.00 | 0.00 | 0.00 | 33 | 1013.5 |
| 20260504203114 | 84 | 242 | 0.9 | 4.3 | 0.00 | 0.00 | 0.00 | 31 | 1013.5 |
| 20260504202609 | 84 | 343 | 1.7 | 2.6 | 0.00 | 0.00 | 0.00 | 29 | 1013.9 |
| 20260504202106 | 83 | 298 | 1.7 | 1.7 | 0.00 | 0.00 | 0.00 | 33 | 1013.8 |
| 20260504201602 | 84 | 269 | 1.7 | 2.6 | 0.00 | 0.00 | 0.00 | 32 | 1013.8 |
| 20260504201100 | 83 | 180 | 0.0 | 1.7 | 0.00 | 0.00 | 0.00 | 32 | 1014.0 |
| 20260504200556 | 81 | 164 | 0.0 | 1.7 | 0.00 | 0.00 | 0.00 | 31 | 1014.1 |
| 20260504200053 | 81 | 288 | 2.6 | 5.2 | 0.00 | 0.00 | 0.00 | 33 | 1013.8 |
| 20260504195549 | 82 | 185 | 0.0 | 2.6 | 0.00 | 0.00 | 0.00 | 33 | 1013.9 |
| 20260504195046 | 82 | 289 | 1.7 | 4.3 | 0.00 | 0.00 | 0.00 | 30 | 1014.1 |
| 20260504194543 | 82 | 121 | 0.9 | 1.7 | 0.00 | 0.00 | 0.00 | 30 | 1014.1 |
| 20260504194038 | 82 | 185 | 0.9 | 2.6 | 0.00 | 0.00 | 0.00 | 33 | 1014.3 |
| 20260504193535 | 82 | 244 | 2.6 | 4.3 | 0.00 | 0.00 | 0.00 | 33 | 1014.2 |
| 20260504193034 | 82 | 332 | 1.7 | 2.6 | 0.00 | 0.00 | 0.00 | 32 | 1014.2 |
| 20260504192532 | 82 | 77 | 2.6 | 2.6 | 0.00 | 0.00 | 0.00 | 31 | 1014.3 |
| 20260504192029 | 83 | 217 | 0.9 | 2.6 | 0.00 | 0.00 | 0.00 | 30 | 1014.5 |
| 20260504191527 | 82 | 242 | 0.0 | 3.5 | 0.00 | 0.00 | 0.00 | 32 | 1014.3 |
| 20260504191023 | 82 | 167 | 0.0 | 2.6 | 0.00 | 0.00 | 0.00 | 33 | 1014.4 |
| 20260504190519 | 82 | 50 | 0.0 | 2.6 | 0.00 | 0.00 | 0.00 | 30 | 1014.5 |
| 20260504190015 | 81 | 218 | 1.7 | 1.7 | 0.00 | 0.00 | 0.00 | 33 | 1014.8 |
| 20260504185513 | 81 | 191 | 0.0 | 4.3 | 0.00 | 0.00 | 0.00 | 34 | 1014.9 |
| 20260504185009 | 81 | 292 | 2.6 | 3.5 | 0.00 | 0.00 | 0.00 | 32 | 1014.6 |
| 20260504184504 | 80 | 202 | 0.0 | 2.6 | 0.00 | 0.00 | 0.00 | 34 | 1014.8 |
| 20260504184000 | 80 | 197 | 0.0 | 4.3 | 0.00 | 0.00 | 0.00 | 32 | 1014.8 |
| 20260504183457 | 81 | 239 | 2.6 | 6.1 | 0.00 | 0.00 | 0.00 | 32 | 1015.1 |
| 20260504182955 | 81 | 43 | 0.0 | 2.6 | 0.00 | 0.00 | 0.00 | 30 | 1015.0 |
| 20260504182452 | 80 | 308 | 0.0 | 3.5 | 0.00 | 0.00 | 0.00 | 34 | 1015.0 |
| 20260504181949 | 79 | 289 | 2.6 | 3.5 | 0.00 | 0.00 | 0.00 | 36 | 1015.2 |
| 20260504181446 | 79 | 287 | 2.6 | 4.3 | 0.00 | 0.00 | 0.00 | 35 | 1015.3 |
| 20260504180945 | 79 | 19 | 3.5 | 3.5 | 0.00 | 0.00 | 0.00 | 33 | 1015.1 |
| 20260504180443 | 78 | 316 | 1.7 | 4.3 | 0.00 | 0.00 | 0.00 | 33 | 1015.1 |
| 20260504175941 | 80 | 2 | 5.2 | 7.0 | 0.00 | 0.00 | 0.00 | 34 | 1015.1 |
| 20260504175438 | 79 | 37 | 0.0 | 4.3 | 0.00 | 0.00 | 0.00 | 33 | 1015.3 |
| 20260504174936 | 79 | 77 | 2.6 | 2.6 | 0.00 | 0.00 | 0.00 | 34 | 1015.3 |
| 20260504174433 | 78 | 305 | 2.6 | 4.3 | 0.00 | 0.00 | 0.00 | 31 | 1015.4 |
| 20260504173930 | 78 | 356 | 0.9 | 3.5 | 0.00 | 0.00 | 0.00 | 30 | 1015.5 |
| 20260504173426 | 79 | 287 | 3.5 | 3.5 | 0.00 | 0.00 | 0.00 | 34 | 1015.4 |
| 20260504172924 | 78 | 239 | 2.6 | 2.6 | 0.00 | 0.00 | 0.00 | 36 | 1015.5 |
| 20260504172420 | 77 | 280 | 0.9 | 3.5 | 0.00 | 0.00 | 0.00 | 36 | 1015.4 |
| 20260504171916 | 76 | 45 | 1.7 | 4.3 | 0.00 | 0.00 | 0.00 | 40 | 1015.7 |
| 20260504171414 | 76 | 0 | 4.3 | 5.2 | 0.00 | 0.00 | 0.00 | 38 | 1015.8 |
| 20260504170911 | 76 | 194 | 0.0 | 5.2 | 0.00 | 0.00 | 0.00 | 36 | 1016.1 |
| 20260504170407 | 75 | 263 | 1.7 | 6.1 | 0.00 | 0.00 | 0.00 | 38 | 1016.1 |
| 20260504160326 | 73 | 114 | 0.9 | 6.1 | 0.00 | 0.00 | 0.00 | 40 | 1017.1 |
| 20260504150751 | 70 | 286 | 0.0 | 2.6 | 0.00 | 0.00 | 0.00 | 48 | 1017.3 |
| 20260504150247 | 70 | 100 | 0.0 | 3.5 | 0.00 | 0.00 | 0.00 | 50 | 1017.3 |
| 20260504141217 | 66 | 329 | 0.9 | 2.6 | 0.00 | 0.00 | 0.00 | 57 | 1017.4 |
| 20260504140714 | 66 | 294 | 3.5 | 3.5 | 0.00 | 0.00 | 0.00 | 57 | 1017.5 |
| 20260504140209 | 66 | 334 | 0.9 | 1.7 | 0.00 | 0.00 | 0.00 | 61 | 1017.3 |
| 20260504130638 | 60 | 339 | 0.0 | 1.7 | 0.00 | 0.00 | 0.00 | 70 | 1017.5 |
| 20260504130134 | 59 | 72 | 0.9 | 1.7 | 0.00 | 0.00 | 0.00 | 74 | 1017.4 |
| 20260504110526 | 42 | 59 | 2.6 | 3.5 | 0.00 | 0.00 | 0.00 | 99 | 1017.5 |
| 20260504100442 | 40 | 77 | 1.7 | 2.6 | 0.00 | 0.00 | 0.00 | 99 | 1017.2 |
| 20260504081835 | 42 | 77 | 2.6 | 2.6 | 0.00 | 0.00 | 0.00 | 89 | 1017.4 |
| 20260504081332 | 42 | 58 | 2.6 | 2.6 | 0.00 | 0.00 | 0.00 | 89 | 1017.2 |
| 20260504080827 | 43 | 65 | 2.6 | 2.6 | 0.00 | 0.00 | 0.00 | 87 | 1017.2 |
| 20260504080325 | 43 | 72 | 2.6 | 2.6 | 0.00 | 0.00 | 0.00 | 87 | 1017.3 |
| 20260504070252 | 43 | 77 | 2.6 | 2.6 | 0.00 | 0.00 | 0.00 | 83 | 1017.3 |
| 20260504060213 | 42 | 65 | 2.6 | 2.6 | 0.00 | 0.00 | 0.00 | 81 | 1017.4 |
| 20260504050640 | 44 | 70 | 2.6 | 2.6 | 0.00 | 0.00 | 0.00 | 86 | 1017.4 |
| 20260504050137 | 44 | 70 | 0.9 | 1.7 | 0.00 | 0.00 | 0.00 | 84 | 1017.2 |
| 20260504045635 | 44 | 52 | 0.9 | 1.7 | 0.00 | 0.00 | 0.00 | 82 | 1017.4 |
| 20260504045134 | 44 | 61 | 1.7 | 1.7 | 0.00 | 0.00 | 0.00 | 85 | 1017.6 |
| 20260504044633 | 43 | 41 | 1.7 | 2.6 | 0.00 | 0.00 | 0.00 | 86 | 1017.4 |
| 20260504044129 | 43 | 63 | 2.6 | 2.6 | 0.00 | 0.00 | 0.00 | 85 | 1017.5 |
| 20260504043626 | 43 | 70 | 2.6 | 2.6 | 0.00 | 0.00 | 0.00 | 87 | 1017.4 |
| 20260504043123 | 44 | 62 | 2.6 | 2.6 | 0.00 | 0.00 | 0.00 | 87 | 1017.6 |
| 20260504042621 | 44 | 45 | 0.9 | 2.6 | 0.00 | 0.00 | 0.00 | 88 | 1017.6 |
| 20260504042117 | 44 | 63 | 1.7 | 2.6 | 0.00 | 0.00 | 0.00 | 86 | 1017.3 |
| 20260504041613 | 44 | 39 | 0.9 | 2.6 | 0.00 | 0.00 | 0.00 | 85 | 1017.7 |
| 20260504041110 | 44 | 64 | 1.7 | 2.6 | 0.00 | 0.00 | 0.00 | 86 | 1017.6 |
| 20260504040607 | 44 | 58 | 1.7 | 2.6 | 0.00 | 0.00 | 0.00 | 86 | 1017.6 |
| 20260504040103 | 44 | 76 | 1.7 | 2.6 | 0.00 | 0.00 | 0.00 | 87 | 1017.4 |
| 20260504035600 | 44 | 61 | 1.7 | 2.6 | 0.00 | 0.00 | 0.00 | 85 | 1017.7 |